[[{"header":{"parameterUnit":"m.s-1","parameterCategory":1,"la1":30.2991,"la2":30.254,"lo1":-89.0895,"lo2":-89.0444,"dy":0.0017,"dx":0.0017,"nx":28,"ny":28,"refTime":"2023-09-08T09:00:00:Z","depth":0,"parameterNumber":2,"parameterNumberName":"U-component_of_WINDS"},"data":[0,0,0,0,0,0,0,0,0,0,0,0,0,0,0,0,0,0,0,0,0,0,0,0,0,0,0,0,0,0,0,0,0,0,0,0,0,0,0,0,0,0,0,0,0,0,0,0,0,0,0,0,0,0,0,0,0,0,-3.4042,-3.4042,0,-3.4054,-3.4054,-3.4054,-3.3953,-3.395,-3.3947,-3.3944,-3.3954,-3.3957,-3.396,0,0,0,0,0,0,0,0,0,0,0,0,0,-3.3928,-3.393,-3.4042,-3.4042,-3.4042,-3.4054,-3.4054,-3.4054,-3.3953,-3.395,-3.3946,-3.3943,-3.3953,-3.3957,-3.396,0,0,0,0,0,0,0,0,0,0,0,0,0,-3.3962,-3.3931,-3.4042,-3.3993,-3.3989,-3.4054,-3.4054,-3.4054,-3.3954,-3.3949,-3.3945,-3.3941,-3.3952,-3.3956,-3.3961,-3.4073,0,0,-3.3974,-3.3976,0,0,0,0,0,0,0,0,-3.396,-3.3967,-3.4,-3.3996,-3.3992,-3.3997,-3.4018,-3.406,-3.3955,-3.3967,-3.3944,-3.3939,-3.3972,-3.3974,-3.3986,-3.4073,-3.4073,-3.3974,-3.3977,-3.3979,-3.398,0,0,0,0,0,0,0,-3.3958,-3.3965,-3.4046,-3.4001,-3.3996,-3.397,-3.397,-3.4025,-3.3993,-3.3966,-3.3958,-3.3961,-3.3969,-3.3982,-3.3985,-3.4074,-3.3974,-3.3978,-3.3981,-3.3982,-3.4252,-3.4256,0,0,0,0,0,0,-3.3963,-3.3964,-3.4046,-3.4047,-3.3965,-3.3975,-3.3975,-3.4,-3.3992,-3.3987,-3.3965,-3.3956,-3.3977,-3.398,-3.3985,-3.4114,-3.3979,-3.3983,-3.3985,-3.4247,-3.4253,-3.4258,0,0,0,0,0,0,-3.3961,-3.3971,-3.4046,-3.4004,-3.4011,-3.3982,-3.401,-3.4002,-3.4015,-3.3992,-3.3985,-3.3984,-3.3973,-3.3979,-3.4051,-3.4113,-3.3985,-3.3989,-3.4242,-3.4249,-3.4255,-3.4374,0,0,0,0,0,0,-3.3958,-3.3971,-3.4013,-3.4005,-3.4014,-3.4112,-3.4014,-3.4006,-3.4023,-3.4013,-3.4008,-3.4003,-3.397,-3.4046,-3.4056,-3.4117,-3.3992,-3.4236,-3.4245,-3.4253,-3.4364,-3.4384,-3.44,0,0,0,0,0,-3.3954,-3.4046,-3.4016,-3.4027,-3.4067,-3.4116,-3.4121,-3.4082,-3.4029,-3.4071,-3.4056,-3.4003,-3.4106,-3.4054,-3.4065,-3.4128,-3.4232,-3.4243,-3.4253,-3.4356,-3.438,-3.44,0,0,0,0,0,0,-3.406,-3.4044,-3.4011,-3.4103,-3.4112,-3.4099,-3.415,-3.4109,-3.4132,-3.4121,-3.4071,-3.4071,-3.4151,-3.4147,-3.409,-3.4235,-3.4159,-3.4172,-3.4234,-3.4257,-3.4275,-3.4272,-3.3996,0,0,0,0,0,-3.4095,-3.4138,-3.4121,-3.4203,-3.421,-3.418,-3.42,-3.417,-3.4177,-3.418,-3.417,-3.4178,-3.4211,-3.4234,-3.4264,-3.4364,-3.4361,-3.4413,-3.4431,-3.4446,-3.4457,-3.4508,-3.453,-3.4291,-3.4291,-3.4291,0,0,-3.4166,-3.4162,-3.4192,-3.4225,-3.4228,-3.4272,-3.4184,-3.4234,-3.4266,-3.4187,-3.4254,-3.4248,-3.4253,-3.434,-3.4377,-3.4339,-3.4523,-3.4459,-3.4472,-3.4474,-3.452,-3.4543,-3.4563,-3.4298,-3.4297,-3.4296,0,0,-3.4317,-3.432,-3.4388,-3.4394,-3.4401,-3.438,-3.4397,-3.4391,-3.4384,-3.4451,-3.4393,-3.443,-3.449,-3.4496,-3.4507,-3.4662,-3.4614,-3.4674,-3.4767,-3.4818,-3.4836,-3.4853,-3.4905,-3.4925,-3.4685,-3.4686,-3.4686,0,-3.4403,-3.4468,-3.4428,-3.4483,-3.4498,-3.4431,-3.4499,-3.4507,-3.4523,-3.4534,-3.4492,-3.4565,-3.4564,-3.465,-3.4689,-3.4701,-3.4717,-3.4672,-3.4837,-3.4853,-3.4868,-3.4917,-3.4938,-3.4692,-3.4692,-3.4691,-3.469,0,-3.4573,-3.4619,-3.4674,-3.4692,-3.4714,-3.4775,-3.4744,-3.4771,-3.474,-3.4724,-3.4793,-3.4791,-3.4818,-3.4837,-3.4807,-3.4919,-3.4894,-3.4846,-3.4768,-3.4898,-3.4944,-3.4963,-3.4702,-3.47,-3.4698,-3.4696,0,0,-3.4787,-3.4784,-3.4805,-3.4812,-3.4816,-3.485,-3.4909,-3.4937,-3.496,-3.4975,-3.502,-3.5074,-3.5029,-3.5041,-3.5011,-3.5056,-3.5177,-3.5001,-3.5001,-3.5031,-3.5298,-3.5332,-3.5355,-3.5147,-3.5151,-3.5153,-3.5296,0,-3.4931,-3.5031,-3.4998,-3.5098,-3.5139,-3.5078,-3.5128,-3.5136,-3.5124,-3.5156,-3.5142,-3.518,-3.5119,-3.5126,-3.5168,-3.5153,-3.5229,-3.5143,-3.5187,-3.5189,-3.5183,-3.5379,-3.5415,-3.5549,-3.5314,-3.5317,-3.532,0,-3.5112,-3.5135,-3.524,-3.5237,-3.5253,-3.5299,-3.5322,-3.5355,-3.5362,-3.535,-3.5366,-3.5327,-3.5383,-3.5309,-3.5384,-3.5326,-3.5343,-3.5339,-3.5343,-3.5342,-3.5259,-3.538,-3.5592,-3.5611,-3.5348,-3.5346,-3.5344,0,-3.5254,-3.5311,-3.5381,-3.5389,-3.5389,-3.5422,-3.5423,-3.5427,-3.5446,-3.5466,-3.5478,-3.5505,-3.5519,-3.554,-3.5509,-3.5459,-3.5589,-3.5512,-3.5578,-3.5579,-3.5604,-3.5602,-3.5818,-3.5622,-3.5622,-3.5621,-3.5621,0,-3.5416,-3.5482,-3.5444,-3.5487,-3.5559,-3.5521,-3.5593,-3.5587,-3.5591,-3.563,-3.558,-3.5618,-3.5577,-3.5611,-3.5587,-3.5652,-3.566,-3.565,-3.5642,-3.5652,-3.5653,-3.5659,-3.5647,-3.5627,-3.5626,-3.5625,-3.5624,0,-3.5584,-3.5562,-3.5634,-3.5628,-3.5628,-3.5681,-3.5676,-3.5714,-3.57,-3.5751,-3.576,-3.5737,-3.5775,-3.5747,-3.5784,-3.5769,-3.5853,-3.5834,-3.585,-3.5844,-3.5909,-3.5902,-3.6133,-3.616,-3.5951,-3.5953,-3.5955,0,-3.5687,-3.5736,-3.5737,-3.576,-3.5765,-3.5804,-3.5823,-3.5789,-3.5811,-3.5824,-3.5861,-3.5895,-3.5919,-3.5982,-3.5968,-3.5996,-3.5975,-3.6054,-3.5978,-3.5986,-3.5971,-3.5967,-3.5971,-3.6068,-3.607,-3.6072,-3.6074,0,-3.5871,-3.5858,-3.5889,-3.5917,-3.5942,-3.5962,-3.5977,-3.5999,-3.5964,-3.5992,-3.603,-3.605,-3.6089,-3.6122,-3.6145,-3.6145,-3.6103,-3.6099,-3.6115,-3.6123,-3.6129,-3.6123,-3.5888,-3.6092,-3.609,-3.6089,-3.6088,-3.6087,-3.6007,-3.6047,-3.6054,-3.609,-3.6099,-3.6115,-3.615,-3.6142,-3.6173,-3.6202,-3.6181,-3.6226,-3.6233,-3.626,-3.6266,-3.63,-3.6267,-3.6291,-3.6296,-3.6301,-3.6309,-3.6128,-3.6304,-3.6304,-3.6303,-3.6303,-3.6303,0,-3.6184,-3.6186,-3.6221,-3.6244,-3.6273,-3.6235,-3.625,-3.6276,-3.6317,-3.6327,-3.6353,-3.6397,-3.643,-3.642,-3.6448,-3.6478,-3.6459,-3.6486,-3.6481,-3.6481,-3.6339,-3.632,-3.65,-3.65,-3.65,-3.65,-3.65,-3.65,-3.628,-3.6346,-3.6334,-3.6404,-3.6405,-3.645,-3.6462,-3.6476,-3.6484,-3.6536,-3.6563,-3.6557,-3.6559,-3.6588,-3.6616,-3.6612,-3.6623,-3.6657,-3.6645,-3.6511,-3.6491,-3.6473,-3.6455,-3.666,-3.6661,-3.6784,-3.6785,-3.6786]},{"header":{"parameterUnit":"m.s-1","parameterCategory":1,"la1":30.2991,"la2":30.254,"lo1":-89.0895,"lo2":-89.0444,"dy":0.0017,"dx":0.0017,"nx":28,"ny":28,"refTime":"2023-09-08T09:00:00:Z","depth":0,"parameterNumber":3,"parameterNumberName":"V-component_of_WINDS"},"data":[0,0,0,0,0,0,0,0,0,0,0,0,0,0,0,0,0,0,0,0,0,0,0,0,0,0,0,0,0,0,0,0,0,0,0,0,0,0,0,0,0,0,0,0,0,0,0,0,0,0,0,0,0,0,0,0,0,0,-1.7381,-1.7382,0,-1.7449,-1.745,-1.745,-1.7474,-1.7474,-1.7474,-1.7474,-1.754,-1.7542,-1.7544,0,0,0,0,0,0,0,0,0,0,0,0,0,-1.7269,-1.7271,-1.7381,-1.7382,-1.7383,-1.7449,-1.745,-1.7451,-1.7474,-1.7474,-1.7474,-1.7473,-1.7539,-1.7541,-1.7544,0,0,0,0,0,0,0,0,0,0,0,0,0,-1.7326,-1.7272,-1.7381,-1.7403,-1.7405,-1.7449,-1.745,-1.7451,-1.7474,-1.7474,-1.7474,-1.7473,-1.7538,-1.7541,-1.7544,-1.757,0,0,-1.7553,-1.7555,0,0,0,0,0,0,0,0,-1.7322,-1.733,-1.7399,-1.7401,-1.7404,-1.7453,-1.7435,-1.7491,-1.7474,-1.7448,-1.7474,-1.7473,-1.7511,-1.7516,-1.753,-1.7573,-1.7576,-1.7554,-1.7555,-1.7557,-1.7557,0,0,0,0,0,0,0,-1.7318,-1.7327,-1.7408,-1.74,-1.7403,-1.7408,-1.7416,-1.7445,-1.7481,-1.745,-1.7452,-1.746,-1.7512,-1.7527,-1.7531,-1.7577,-1.7553,-1.7556,-1.7558,-1.7559,-1.7644,-1.7644,0,0,0,0,0,0,-1.7311,-1.7323,-1.7406,-1.741,-1.7362,-1.741,-1.7419,-1.7438,-1.748,-1.7487,-1.746,-1.7461,-1.7522,-1.7528,-1.7534,-1.7566,-1.7557,-1.7559,-1.7561,-1.7643,-1.7644,-1.7644,0,0,0,0,0,0,-1.7309,-1.7319,-1.7403,-1.7367,-1.7378,-1.7413,-1.7434,-1.7439,-1.7453,-1.7488,-1.7494,-1.7469,-1.7522,-1.7529,-1.7561,-1.7569,-1.7561,-1.7563,-1.7643,-1.7643,-1.7644,-1.7631,0,0,0,0,0,0,-1.7306,-1.7317,-1.7328,-1.7367,-1.738,-1.743,-1.7434,-1.7441,-1.7459,-1.746,-1.7497,-1.7503,-1.7522,-1.7556,-1.7564,-1.7573,-1.7566,-1.7642,-1.7643,-1.7644,-1.7631,-1.7631,-1.7632,0,0,0,0,0,-1.7301,-1.7322,-1.7329,-1.7339,-1.7395,-1.743,-1.7438,-1.746,-1.7459,-1.747,-1.7492,-1.7502,-1.7567,-1.7559,-1.7568,-1.7578,-1.7642,-1.7643,-1.7644,-1.7631,-1.7631,-1.7632,0,0,0,0,0,0,-1.7282,-1.7327,-1.7336,-1.7369,-1.7396,-1.7434,-1.7449,-1.746,-1.7486,-1.7486,-1.7512,-1.752,-1.7549,-1.7566,-1.7557,-1.7604,-1.7605,-1.7607,-1.7592,-1.7593,-1.7593,-1.7588,-1.7568,0,0,0,0,0,-1.7282,-1.7308,-1.7345,-1.7371,-1.7384,-1.7414,-1.743,-1.7445,-1.7473,-1.7484,-1.7509,-1.7535,-1.7561,-1.7578,-1.7604,-1.7634,-1.7641,-1.7645,-1.7645,-1.7645,-1.7647,-1.7663,-1.7665,-1.7647,-1.7647,-1.7647,0,0,-1.7281,-1.7309,-1.7324,-1.7368,-1.7391,-1.7416,-1.7423,-1.745,-1.7469,-1.7488,-1.7519,-1.7538,-1.7569,-1.7599,-1.7614,-1.7615,-1.7654,-1.7646,-1.7646,-1.7648,-1.7664,-1.7666,-1.7667,-1.7648,-1.7648,-1.7648,0,0,-1.7293,-1.7317,-1.7341,-1.7363,-1.7397,-1.7417,-1.7423,-1.746,-1.7473,-1.7505,-1.752,-1.7542,-1.7586,-1.7608,-1.7624,-1.7643,-1.7653,-1.7651,-1.7652,-1.7668,-1.7669,-1.767,-1.7677,-1.7679,-1.7653,-1.7653,-1.7653,0,-1.7287,-1.7327,-1.7352,-1.7378,-1.7396,-1.7416,-1.744,-1.746,-1.75,-1.7512,-1.7513,-1.7569,-1.7591,-1.7626,-1.7631,-1.7644,-1.765,-1.7647,-1.7667,-1.7669,-1.767,-1.7676,-1.7679,-1.7652,-1.7652,-1.7652,-1.7652,0,-1.7319,-1.7346,-1.7361,-1.7401,-1.7421,-1.7446,-1.7472,-1.749,-1.7503,-1.7522,-1.7553,-1.758,-1.7612,-1.7621,-1.7634,-1.7658,-1.7658,-1.7662,-1.7663,-1.7671,-1.7677,-1.768,-1.7652,-1.7652,-1.7652,-1.7652,0,0,-1.732,-1.7373,-1.7378,-1.7396,-1.7434,-1.7455,-1.748,-1.7512,-1.7526,-1.7553,-1.7574,-1.7611,-1.7616,-1.7635,-1.7649,-1.7663,-1.7676,-1.7666,-1.7667,-1.7667,-1.7703,-1.7699,-1.7702,-1.7682,-1.7683,-1.7683,-1.77,0,-1.7337,-1.7384,-1.7406,-1.7442,-1.7467,-1.7486,-1.7508,-1.7533,-1.7551,-1.7574,-1.7594,-1.762,-1.7624,-1.7636,-1.765,-1.7671,-1.7683,-1.767,-1.7701,-1.7702,-1.7693,-1.7705,-1.7701,-1.7716,-1.7703,-1.7704,-1.7704,0,-1.7363,-1.739,-1.7429,-1.7465,-1.7476,-1.7495,-1.7526,-1.7548,-1.7577,-1.7589,-1.761,-1.7624,-1.765,-1.7649,-1.7684,-1.7674,-1.7688,-1.77,-1.7701,-1.7705,-1.7703,-1.7708,-1.7721,-1.7723,-1.7708,-1.7708,-1.7707,0,-1.7359,-1.7406,-1.7436,-1.745,-1.7492,-1.7505,-1.7523,-1.7552,-1.7569,-1.7595,-1.7607,-1.7635,-1.7651,-1.7672,-1.7693,-1.769,-1.7726,-1.7727,-1.7736,-1.7735,-1.7742,-1.7742,-1.7757,-1.7752,-1.7752,-1.7752,-1.7752,0,-1.7375,-1.7398,-1.7434,-1.7452,-1.7479,-1.7503,-1.7528,-1.7547,-1.7572,-1.7593,-1.7611,-1.763,-1.7657,-1.7679,-1.7696,-1.7722,-1.7729,-1.7739,-1.7743,-1.7737,-1.7736,-1.7747,-1.7746,-1.7752,-1.7752,-1.7752,-1.7752,0,-1.7375,-1.7401,-1.7434,-1.7471,-1.7481,-1.7499,-1.753,-1.7547,-1.7567,-1.7593,-1.7601,-1.763,-1.7657,-1.7681,-1.7716,-1.7727,-1.7754,-1.7759,-1.7745,-1.7747,-1.7755,-1.7754,-1.7778,-1.7782,-1.7773,-1.7773,-1.7773,0,-1.7384,-1.7402,-1.7441,-1.7457,-1.7475,-1.7501,-1.7519,-1.7543,-1.7561,-1.7595,-1.7608,-1.7637,-1.7661,-1.7703,-1.7727,-1.7754,-1.776,-1.7766,-1.7764,-1.7758,-1.7759,-1.7758,-1.776,-1.7766,-1.7766,-1.7766,-1.7766,0,-1.7396,-1.7407,-1.7433,-1.7464,-1.7485,-1.751,-1.7535,-1.7546,-1.7575,-1.7594,-1.7623,-1.7642,-1.7678,-1.7706,-1.7736,-1.7753,-1.7764,-1.7767,-1.777,-1.7765,-1.7755,-1.776,-1.7745,-1.7766,-1.7766,-1.7766,-1.7766,-1.7766,-1.74,-1.7417,-1.7448,-1.7476,-1.7497,-1.752,-1.7538,-1.756,-1.7585,-1.7617,-1.763,-1.7658,-1.7686,-1.7727,-1.7744,-1.7766,-1.7768,-1.7773,-1.7774,-1.7775,-1.7774,-1.7752,-1.7772,-1.7772,-1.7772,-1.7772,-1.7772,0,-1.7413,-1.7433,-1.7459,-1.7494,-1.7516,-1.7525,-1.7553,-1.7571,-1.7596,-1.7621,-1.7645,-1.7677,-1.7704,-1.773,-1.7758,-1.777,-1.7776,-1.7777,-1.7776,-1.778,-1.7771,-1.7765,-1.7772,-1.7772,-1.7772,-1.7772,-1.7772,-1.7772,-1.7422,-1.7451,-1.7466,-1.7505,-1.7525,-1.7555,-1.757,-1.7591,-1.7611,-1.7646,-1.7669,-1.7686,-1.7711,-1.7741,-1.7766,-1.7773,-1.7782,-1.7781,-1.7789,-1.7781,-1.778,-1.778,-1.7775,-1.7783,-1.7783,-1.7796,-1.7796,-1.7797]}]]